Location: Marcé
(47.5801°N, 0.3280°W)
Time: 11:22:26
(UTC+01:00)

deb Explorer IX - Pass Details

Date: 05 December 2021
Orbit: 544 x 1082 km, 38.8° (Epoch: 17 January)

Event Time Altitude Azimuth Distance (km) Brightness Sun altitude
Rises 10:42:11 0° 222° (SW) 3,119 ? 14.2°
Reaches altitude 10° 10:45:25 10° 203° (SSW) 2,093 ? 14.4°
Maximum altitude 10:48:33 17° 162° (SSE) 1,571 ? 14.7°
Drops below altitude 10° 10:51:28 10° 121° (ESE) 1,925 ? 14.9°
Sets 10:54:16 0° 101° (E) 2,766 ? 15.2°
